Regional Weather Roundup
Issued by NWS Newport/Morehead, NC

Current Version | Previous Version | Graphics & Text | Print | Product List | Glossary Off
Versions: 1 2 3 4 5 6 7 8 9 10 11 12 13 14 15 16 17 18 19 20 21 22 23 24 25 26 27 28 29 30 31 32 33 34 35 36 37 38 39 40 41 42 43 44 45 46 47 48 49 50

000
ASUS42 KMHX 202322
RWRMHX
WEATHER ROUNDUP FOR EASTERN NORTH CAROLINA
NATIONAL WEATHER SERVICE NEWPORT/MOREHEAD CITY NC
700 PM EDT WED AUG 20 2014

NOTE: "FAIR" INDICATES FEW OR NO CLOUDS BELOW 12,000 FEET
WITH NO SIGNIFICANT WEATHER AND/OR OBSTRUCTIONS TO VISIBILITY

NCZ015>017-031-032-045>047-102-103-210000-
NORTH COAST

CITY           SKY/WX    TMP DP  RH WIND       PRES   REMARKS
EDENTON        CLEAR     80  73  79 E6        29.97S
ELIZABETH CITY PTCLDY    80  71  74 E6        29.98S
KITTY HAWK     PTCLDY    78  71  79 E5        29.97F
MANTEO         PTCLDY    79  72  78 NE7       29.98F

$$

NCZ045>047-081-094-103-104-210000-
CENTRAL COAST

CITY           SKY/WX    TMP DP  RH WIND       PRES   REMARKS
FRISCO         PTCLDY    78  72  81 E3        29.98R
SWANQUARTER      N/A     81 N/A N/A E5        29.94S

$$

NCZ095-097-098-100-101-210000-
SOUTHERN COAST

CITY           SKY/WX    TMP DP  RH WIND       PRES   REMARKS
BEAUFORT       CLOUDY    83  75  77 SW10      29.97F
CEDAR ISLAND     N/A     81 N/A N/A SE5       30.00F
JACKSONVILLE   MOCLDY    83  75  77 SW6       29.96F
NEWPORT        NOT AVBL
PINEY ISLAND   NOT AVBL
WILMINGTON     PTCLDY    83  76  79 CALM      29.97S


$$

NCZ011>013-027>030-043-044-078>080-089-090>093-098-210000-
COASTAL PLAIN

CITY           SKY/WX    TMP DP  RH WIND       PRES   REMARKS
AHOSKIE        CLEAR     78  73  85 CALM      29.96S
CLINTON        MOSUNNY   81  74  77 CALM      29.97R
ELIZABETHTOWN  SUNNY     84  75  74 CALM      29.97R
GOLDSBORO      MOSUNNY   87  77  71 SE3       29.94S
GREENVILLE     PTCLDY    86  73  66 CALM      29.98S
HAVELOCK       NOT AVBL
KENANSVILLE    MOSUNNY   82  73  76 CALM      29.97S
KINSTON        PTCLDY    86  72  62 E5        29.96F
NEW BERN       MOCLDY    85  75  72 SW7       29.98S
RICHLANDS      PTCLDY    84  72  65 CALM      29.97S
ROANOKE RAPIDS NOT AVBL
ROCKY MOUNT    MOSUNNY   79  75  87 CALM      29.96F
WASHINGTON     PTCLDY    85  71  62 CALM      29.96F
WHITEVILLE     SUNNY     84  74  71 CALM      29.96R

$$

AMZ130-135-150-152-154-156-158-170-250-252-270-ANZ085-086-088-633-658-670-210000-
MARINE OBSERVATIONS

STATION/POSITION TIME  TEMP    WIND        PRES    WAVE   SWELL
                       AIR SEA DIR/SP/G            HT/PER HT/PER
                 (UTC) (F)     (DEG/KT/KT) (MB)    (FT/S) (FT/S)
CHESAPEAKE LIGHT 2300   76      80/ 11/ 11 1015.8
BUOY 44014       2300   78 78   70/  6/  8 1015.0    2/ 5   2/ 5
DUCK             2300   78 79   80/  7/  8 1014.3
2E DUCK          2300                        N/A     2/ 6
OREGON INLET     2300   79 83   40/  5/  8 1015.1
BUOY 44095       2300      80                N/A     3/ 6
20E OREGON INLET NOT AVBL
HATTERAS CG      2300   80 83   70/  4/  5 1015.6
DIAMOND BUOY     2300   78     320/  6/  8 1015.0    3/ 6   2/ 6
CAPE LOOKOUT     2300   81     250/  5/  7 1015.0
BEAUFORT LAB     2300   82 82  210/  6/ 10 1014.3
30 SE NEW RIVER  2300   82 84  240/  6/  6 1014.5    3/ 6   2/ 6
5 SE WRIGHTSVILL 2300   78 83  200/  2/  4   N/A
BUOY 41002       2212   82 81  260/ 12/ 16 1016.6    5/ 7   3/ 7
BUOY 41004       2300   84 84  210/ 12/ 12 1014.3    3/ 5   2/ 8

$$


USA.gov is the U.S. government's official web portal to all federal, state and local government web resources and services.